Time,TemperatureF,DewpointF,PressureIn,WindDirection,WindDirectionDegrees,WindSpeedMPH,WindSpeedGustMPH,Humidity,HourlyPrecipIn,Conditions,Clouds,dailyrainin,SoftwareType,DateUTC
2013-03-06 00:05:00,10.9,-5.8,31.77,NE,45,0.0,0.0,46,0.00,,,0.00,meteohub,2013-03-06 07:05:00,
2013-03-06 00:11:00,10.9,-5.8,31.77,South,180,0.0,0.0,46,0.00,,,0.00,meteohub,2013-03-06 07:11:00,
2013-03-06 00:16:00,10.9,-5.8,31.77,NW,315,0.0,0.0,46,0.00,,,0.00,meteohub,2013-03-06 07:16:00,
2013-03-06 00:22:00,10.8,-6.0,31.77,SW,225,0.0,0.0,46,0.00,,,0.00,meteohub,2013-03-06 07:22:00,
2013-03-06 00:27:00,10.6,-6.2,31.77,West,270,0.0,0.0,46,0.00,,,0.00,meteohub,2013-03-06 07:27:00,
2013-03-06 00:32:00,10.6,-6.2,31.77,NW,315,0.0,0.0,46,0.00,,,0.00,meteohub,2013-03-06 07:32:00,
2013-03-06 00:37:00,10.8,-6.0,31.76,SW,225,0.0,0.0,46,0.00,,,0.00,meteohub,2013-03-06 07:37:00,
2013-03-06 00:43:00,10.8,-6.0,31.76,South,180,0.0,0.0,46,0.00,,,0.00,meteohub,2013-03-06 07:43:00,
2013-03-06 00:48:00,10.9,-5.8,31.76,SW,225,0.0,0.0,46,0.00,,,0.00,meteohub,2013-03-06 07:48:00,
2013-03-06 00:54:00,11.1,-6.2,31.76,East,90,0.0,0.0,45,0.00,,,0.00,meteohub,2013-03-06 07:54:00,
2013-03-06 00:59:00,11.3,-6.0,31.76,NW,315,0.0,0.0,45,0.00,,,0.00,meteohub,2013-03-06 07:59:00,
2013-03-06 01:04:00,11.3,-6.0,31.76,East,90,0.0,0.0,45,0.00,,,0.00,meteohub,2013-03-06 08:04:00,
2013-03-06 01:09:00,11.5,-5.8,31.76,SE,135,0.0,0.0,45,0.00,,,0.00,meteohub,2013-03-06 08:09:00,
2013-03-06 01:14:00,10.9,-6.2,31.76,West,270,0.0,0.0,45,0.00,,,0.00,meteohub,2013-03-06 08:14:00,
2013-03-06 01:20:00,10.8,-6.3,31.76,SW,225,0.0,0.0,45,0.00,,,0.00,meteohub,2013-03-06 08:20:00,
2013-03-06 01:25:00,10.4,-6.7,31.76,NW,315,0.0,0.0,45,0.00,,,0.00,meteohub,2013-03-06 08:25:00,
2013-03-06 01:31:00,10.4,-6.7,31.76,West,270,0.0,0.0,45,0.00,,,0.00,meteohub,2013-03-06 08:31:00,
2013-03-06 01:36:00,10.6,-6.5,31.76,West,270,0.0,0.0,45,0.00,,,0.00,meteohub,2013-03-06 08:36:00,
2013-03-06 01:42:00,10.6,-6.5,31.76,West,270,0.0,0.0,45,0.00,,,0.00,meteohub,2013-03-06 08:42:00,
2013-03-06 01:47:00,10.6,-6.5,31.76,South,180,0.0,5.0,45,0.00,,,0.00,meteohub,2013-03-06 08:47:00,
2013-03-06 01:52:00,10.0,-8.5,31.75,West,270,0.0,5.0,42,0.00,,,0.00,meteohub,2013-03-06 08:52:00,
2013-03-06 01:57:00,10.0,-9.0,31.75,NE,45,0.0,5.0,41,0.00,,,0.00,meteohub,2013-03-06 08:57:00,
2013-03-06 02:02:00,10.0,-9.0,31.75,SW,225,0.0,0.0,41,0.00,,,0.00,meteohub,2013-03-06 09:02:00,
2013-03-06 02:07:00,9.9,-9.2,31.75,West,270,0.0,0.0,41,0.00,,,0.00,meteohub,2013-03-06 09:07:00,
2013-03-06 02:12:00,10.2,-8.9,31.75,South,180,0.0,0.0,41,0.00,,,0.00,meteohub,2013-03-06 09:12:00,
2013-03-06 02:17:00,10.0,-9.0,31.75,NW,315,0.0,0.0,41,0.00,,,0.00,meteohub,2013-03-06 09:17:00,
2013-03-06 02:22:00,10.0,-9.0,31.75,South,180,0.0,0.0,41,0.00,,,0.00,meteohub,2013-03-06 09:22:00,
2013-03-06 02:27:00,9.7,-9.2,31.75,West,270,4.0,0.0,41,0.00,,,0.00,meteohub,2013-03-06 09:27:00,
2013-03-06 02:32:00,10.0,-9.0,31.75,NW,315,0.0,5.0,41,0.00,,,0.00,meteohub,2013-03-06 09:32:00,
2013-03-06 02:37:00,10.9,-6.2,31.75,East,90,0.0,5.0,45,0.00,,,0.00,meteohub,2013-03-06 09:37:00,
2013-03-06 02:42:00,10.9,-6.2,31.75,South,180,0.0,5.0,45,0.00,,,0.00,meteohub,2013-03-06 09:42:00,
2013-03-06 02:47:00,10.6,-6.5,31.74,WSW,248,0.0,0.0,45,0.00,,,0.00,meteohub,2013-03-06 09:47:00,
2013-03-06 02:52:00,9.9,-9.2,31.75,SW,225,0.0,0.0,41,0.00,,,0.00,meteohub,2013-03-06 09:52:00,
2013-03-06 02:57:00,9.3,-9.6,31.74,West,270,0.0,0.0,41,0.00,,,0.00,meteohub,2013-03-06 09:57:00,
2013-03-06 03:02:00,9.3,-9.6,31.74,SE,135,0.0,0.0,41,0.00,,,0.00,meteohub,2013-03-06 10:02:00,
2013-03-06 03:07:00,9.3,-9.6,31.74,SE,135,0.0,0.0,41,0.00,,,0.00,meteohub,2013-03-06 10:07:00,
2013-03-06 03:12:00,9.7,-9.2,31.74,SW,225,0.0,0.0,41,0.00,,,0.00,meteohub,2013-03-06 10:12:00,
2013-03-06 03:17:00,10.4,-6.7,31.74,North,0,0.0,0.0,45,0.00,,,0.00,meteohub,2013-03-06 10:17:00,
2013-03-06 03:22:00,10.6,-6.5,31.73,East,90,0.0,0.0,45,0.00,,,0.00,meteohub,2013-03-06 10:22:00,
2013-03-06 03:27:00,10.9,-6.2,31.74,NW,315,0.0,0.0,45,0.00,,,0.00,meteohub,2013-03-06 10:27:00,
2013-03-06 03:33:00,10.6,-7.1,31.74,South,180,0.0,0.0,44,0.00,,,0.00,meteohub,2013-03-06 10:33:00,
2013-03-06 03:38:00,10.2,-9.8,31.73,North,0,0.0,0.0,39,0.00,,,0.00,meteohub,2013-03-06 10:38:00,
2013-03-06 03:44:00,9.9,-9.6,31.73,West,270,0.0,0.0,40,0.00,,,0.00,meteohub,2013-03-06 10:44:00,
2013-03-06 03:49:00,10.2,-9.4,31.73,South,180,0.0,0.0,40,0.00,,,0.00,meteohub,2013-03-06 10:49:00,
2013-03-06 03:54:00,9.9,-9.6,31.73,North,0,0.0,0.0,40,0.00,,,0.00,meteohub,2013-03-06 10:54:00,
2013-03-06 03:59:00,9.9,-9.6,31.73,SE,135,0.0,0.0,40,0.00,,,0.00,meteohub,2013-03-06 10:59:00,
2013-03-06 04:05:00,10.0,-9.0,31.73,NE,45,0.0,0.0,41,0.00,,,0.00,meteohub,2013-03-06 11:05:00,
2013-03-06 04:11:00,10.0,-9.0,31.73,West,270,0.0,0.0,41,0.00,,,0.00,meteohub,2013-03-06 11:11:00,
2013-03-06 04:17:00,9.9,-9.2,31.73,South,180,0.0,0.0,41,0.00,,,0.00,meteohub,2013-03-06 11:17:00,
2013-03-06 04:22:00,9.7,-9.2,31.73,SW,225,0.0,0.0,41,0.00,,,0.00,meteohub,2013-03-06 11:22:00,
2013-03-06 04:27:00,9.7,-9.2,31.73,North,0,0.0,0.0,41,0.00,,,0.00,meteohub,2013-03-06 11:27:00,
2013-03-06 04:32:00,9.9,-9.2,31.74,SW,225,0.0,0.0,41,0.00,,,0.00,meteohub,2013-03-06 11:32:00,
2013-03-06 04:37:00,9.7,-9.2,31.73,SW,225,0.0,0.0,41,0.00,,,0.00,meteohub,2013-03-06 11:37:00,
2013-03-06 04:43:00,10.0,-9.0,31.73,SW,225,0.0,0.0,41,0.00,,,0.00,meteohub,2013-03-06 11:43:00,
2013-03-06 04:48:00,10.0,-9.0,31.73,NW,315,0.0,0.0,41,0.00,,,0.00,meteohub,2013-03-06 11:48:00,
2013-03-06 04:54:00,9.7,-9.2,31.73,West,270,0.0,0.0,41,0.00,,,0.00,meteohub,2013-03-06 11:54:00,
2013-03-06 05:00:00,9.5,-9.4,31.73,South,180,0.0,0.0,41,0.00,,,0.00,meteohub,2013-03-06 12:00:00,
2013-03-06 05:05:00,9.5,-9.4,31.74,South,180,0.0,0.0,41,0.00,,,0.00,meteohub,2013-03-06 12:05:00,
2013-03-06 05:11:00,9.1,-9.8,31.73,SW,225,0.0,0.0,41,0.00,,,0.00,meteohub,2013-03-06 12:11:00,
2013-03-06 05:17:00,9.5,-9.4,31.74,SW,225,0.0,0.0,41,0.00,,,0.00,meteohub,2013-03-06 12:17:00,
2013-03-06 05:22:00,9.9,-9.2,31.73,NW,315,0.0,0.0,41,0.00,,,0.00,meteohub,2013-03-06 12:22:00,
2013-03-06 05:27:00,9.9,-9.2,31.73,North,0,0.0,0.0,41,0.00,,,0.00,meteohub,2013-03-06 12:27:00,
2013-03-06 05:32:00,9.9,-9.2,31.73,SW,225,0.0,0.0,41,0.00,,,0.00,meteohub,2013-03-06 12:32:00,
2013-03-06 05:37:00,9.5,-9.4,31.73,SW,225,0.0,0.0,41,0.00,,,0.00,meteohub,2013-03-06 12:37:00,
2013-03-06 05:42:00,9.0,-9.9,31.73,North,0,0.0,0.0,41,0.00,,,0.00,meteohub,2013-03-06 12:42:00,
2013-03-06 05:47:00,8.8,-10.1,31.73,North,0,0.0,0.0,41,0.00,,,0.00,meteohub,2013-03-06 12:47:00,
2013-03-06 05:52:00,9.0,-9.9,31.73,NW,315,0.0,0.0,41,0.00,,,0.00,meteohub,2013-03-06 12:52:00,
2013-03-06 05:57:00,9.0,-9.4,31.73,SW,225,0.0,0.0,42,0.00,,,0.00,meteohub,2013-03-06 12:57:00,
2013-03-06 06:02:00,9.1,-9.2,31.73,SW,225,0.0,0.0,42,0.00,,,0.00,meteohub,2013-03-06 13:02:00,
2013-03-06 06:07:00,9.0,-9.4,31.73,North,0,0.0,0.0,42,0.00,,,0.00,meteohub,2013-03-06 13:07:00,
2013-03-06 06:12:00,9.0,-9.4,31.73,SW,225,0.0,0.0,42,0.00,,,0.00,meteohub,2013-03-06 13:12:00,
2013-03-06 06:17:00,8.8,-9.6,31.73,South,180,0.0,0.0,42,0.00,,,0.00,meteohub,2013-03-06 13:17:00,
2013-03-06 06:23:00,8.6,-9.8,31.73,NW,315,0.0,0.0,42,0.00,,,0.00,meteohub,2013-03-06 13:23:00,
2013-03-06 06:28:00,8.6,-9.8,31.73,South,180,0.0,0.0,42,0.00,,,0.00,meteohub,2013-03-06 13:28:00,
2013-03-06 06:34:00,8.2,-9.2,31.73,SW,225,0.0,0.0,44,0.00,,,0.00,meteohub,2013-03-06 13:34:00,
2013-03-06 06:39:00,8.4,-9.0,31.72,SW,225,0.0,0.0,44,0.00,,,0.00,meteohub,2013-03-06 13:39:00,
2013-03-06 06:45:00,8.4,-9.0,31.73,SW,225,0.0,0.0,44,0.00,,,0.00,meteohub,2013-03-06 13:45:00,
2013-03-06 06:51:00,8.6,-8.9,31.72,SW,225,0.0,0.0,44,0.00,,,0.00,meteohub,2013-03-06 13:51:00,
2013-03-06 06:56:00,8.6,-8.9,31.72,SW,225,0.0,0.0,44,0.00,,,0.00,meteohub,2013-03-06 13:56:00,
2013-03-06 07:02:00,9.0,-8.5,31.72,West,270,0.0,0.0,44,0.00,,,0.00,meteohub,2013-03-06 14:02:00,
2013-03-06 07:07:00,9.0,-8.5,31.73,West,270,0.0,0.0,44,0.00,,,0.00,meteohub,2013-03-06 14:07:00,
2013-03-06 07:12:00,10.6,-4.9,31.72,SW,225,0.0,0.0,49,0.00,,,0.00,meteohub,2013-03-06 14:12:00,
2013-03-06 07:17:00,11.3,-4.5,31.72,SW,225,0.0,0.0,48,0.00,,,0.00,meteohub,2013-03-06 14:17:00,
2013-03-06 07:23:00,12.2,-4.2,31.72,North,0,0.0,0.0,47,0.00,,,0.00,meteohub,2013-03-06 14:23:00,
2013-03-06 07:29:00,13.5,-2.6,31.72,South,180,0.0,0.0,48,0.00,,,0.00,meteohub,2013-03-06 14:29:00,
2013-03-06 07:34:00,14.2,-2.7,31.72,South,180,0.0,0.0,46,0.00,,,0.00,meteohub,2013-03-06 14:34:00,
2013-03-06 07:40:00,14.9,-2.2,31.72,NE,45,0.0,0.0,46,0.00,,,0.00,meteohub,2013-03-06 14:40:00,
2013-03-06 07:45:00,15.4,-1.7,31.71,North,0,0.0,0.0,46,0.00,,,0.00,meteohub,2013-03-06 14:45:00,
2013-03-06 07:51:00,16.3,-1.8,31.72,NE,45,0.0,0.0,44,0.00,,,0.00,meteohub,2013-03-06 14:51:00,
2013-03-06 07:56:00,17.2,-0.9,31.72,East,90,0.0,0.0,44,0.00,,,0.00,meteohub,2013-03-06 14:56:00,
2013-03-06 08:01:00,18.3,-0.4,31.72,NE,45,0.0,0.0,43,0.00,,,0.00,meteohub,2013-03-06 15:01:00,
2013-03-06 08:07:00,18.9,0.1,31.71,SW,225,0.0,0.0,43,0.00,,,0.00,meteohub,2013-03-06 15:07:00,
2013-03-06 08:12:00,19.6,2.1,31.71,South,180,0.0,0.0,46,0.00,,,0.00,meteohub,2013-03-06 15:12:00,
2013-03-06 08:17:00,21.2,3.2,31.71,South,180,0.0,0.0,45,0.00,,,0.00,meteohub,2013-03-06 15:17:00,
2013-03-06 08:22:00,22.8,4.1,31.71,South,180,0.0,0.0,44,0.00,,,0.00,meteohub,2013-03-06 15:22:00,
2013-03-06 08:28:00,25.0,4.1,31.71,West,270,0.0,0.0,40,0.00,,,0.00,meteohub,2013-03-06 15:28:00,
2013-03-06 08:33:00,27.5,5.2,31.71,SW,225,0.0,0.0,38,0.00,,,0.00,meteohub,2013-03-06 15:33:00,
2013-03-06 08:39:00,29.7,6.6,31.70,NE,45,0.0,0.0,37,0.00,,,0.00,meteohub,2013-03-06 15:39:00,
2013-03-06 08:44:00,30.7,5.7,31.71,SE,135,0.0,0.0,34,0.00,,,0.00,meteohub,2013-03-06 15:44:00,
2013-03-06 08:50:00,32.7,6.1,31.71,North,0,0.0,0.0,32,0.00,,,0.00,meteohub,2013-03-06 15:50:00,
2013-03-06 08:56:00,33.8,5.7,31.71,North,0,0.0,0.0,30,0.00,,,0.00,meteohub,2013-03-06 15:56:00,
2013-03-06 09:01:00,34.3,4.6,31.70,NE,45,0.0,0.0,28,0.00,,,0.00,meteohub,2013-03-06 16:01:00,
2013-03-06 09:07:00,34.3,4.6,31.71,NE,45,0.0,0.0,28,0.00,,,0.00,meteohub,2013-03-06 16:07:00,
2013-03-06 09:12:00,36.0,5.2,31.70,East,90,0.0,0.0,27,0.00,,,0.00,meteohub,2013-03-06 16:12:00,
2013-03-06 09:17:00,36.0,6.1,31.70,NW,315,0.0,0.0,28,0.00,,,0.00,meteohub,2013-03-06 16:17:00,
2013-03-06 09:22:00,36.3,4.6,31.70,NE,45,0.0,0.0,26,0.00,,,0.00,meteohub,2013-03-06 16:22:00,
2013-03-06 09:27:00,36.9,4.3,31.70,NE,45,0.0,0.0,25,0.00,,,0.00,meteohub,2013-03-06 16:27:00,
2013-03-06 09:32:00,37.0,4.5,31.70,NNE,23,2.0,0.0,25,0.00,,,0.00,meteohub,2013-03-06 16:32:00,
2013-03-06 09:38:00,35.6,3.2,31.70,North,0,2.0,4.0,25,0.00,,,0.00,meteohub,2013-03-06 16:38:00,
2013-03-06 09:44:00,37.6,9.7,31.70,NW,315,0.0,4.0,31,0.00,,,0.00,meteohub,2013-03-06 16:44:00,
2013-03-06 09:49:00,40.3,10.6,31.70,SE,135,0.0,4.0,29,0.00,,,0.00,meteohub,2013-03-06 16:49:00,
2013-03-06 09:54:00,41.7,10.9,31.70,NE,45,0.0,4.0,28,0.00,,,0.00,meteohub,2013-03-06 16:54:00,
2013-03-06 10:00:00,43.0,11.3,31.70,NE,45,4.0,4.0,27,0.00,,,0.00,meteohub,2013-03-06 17:00:00,
2013-03-06 10:06:00,43.2,9.7,31.70,SE,135,4.0,6.0,25,0.00,,,0.00,meteohub,2013-03-06 17:06:00,
2013-03-06 10:11:00,43.9,10.4,31.70,NE,45,6.0,6.0,25,0.00,,,0.00,meteohub,2013-03-06 17:11:00,
2013-03-06 10:17:00,42.4,10.0,31.70,NE,45,4.0,6.0,26,0.00,,,0.00,meteohub,2013-03-06 17:17:00,
2013-03-06 10:22:00,42.4,9.1,31.70,East,90,8.0,8.0,25,0.00,,,0.00,meteohub,2013-03-06 17:22:00,
2013-03-06 10:27:00,43.2,9.7,31.70,NE,45,8.0,8.0,25,0.00,,,0.00,meteohub,2013-03-06 17:27:00,
2013-03-06 10:32:00,43.2,9.7,31.70,NE,45,7.0,11.0,25,0.00,,,0.00,meteohub,2013-03-06 17:32:00,
2013-03-06 10:37:00,44.1,9.5,31.69,NE,45,5.0,11.0,24,0.00,,,0.00,meteohub,2013-03-06 17:37:00,
2013-03-06 10:42:00,45.5,9.9,31.69,South,180,5.0,11.0,23,0.00,,,0.00,meteohub,2013-03-06 17:42:00,
2013-03-06 10:47:00,46.4,12.6,31.69,NE,45,9.0,10.0,25,0.00,,,0.00,meteohub,2013-03-06 17:47:00,
2013-03-06 10:52:00,45.9,9.1,31.69,SE,135,4.0,10.0,22,0.00,,,0.00,meteohub,2013-03-06 17:52:00,
2013-03-06 10:57:00,46.8,12.7,31.69,NE,45,2.0,9.0,25,0.00,,,0.00,meteohub,2013-03-06 17:57:00,
2013-03-06 11:02:00,48.0,13.8,31.69,East,90,4.0,9.0,25,0.00,,,0.00,meteohub,2013-03-06 18:02:00,
2013-03-06 11:07:00,48.0,13.8,31.69,East,90,4.0,8.0,25,0.00,,,0.00,meteohub,2013-03-06 18:07:00,
2013-03-06 11:12:00,50.4,14.0,31.69,East,90,9.0,9.0,23,0.00,,,0.00,meteohub,2013-03-06 18:12:00,
2013-03-06 11:17:00,49.5,14.2,31.69,NE,45,4.0,9.0,24,0.00,,,0.00,meteohub,2013-03-06 18:17:00,
2013-03-06 11:22:00,50.0,13.6,31.68,NW,315,6.0,9.0,23,0.00,,,0.00,meteohub,2013-03-06 18:22:00,
2013-03-06 11:27:00,50.9,14.4,31.69,East,90,5.0,9.0,23,0.00,,,0.00,meteohub,2013-03-06 18:27:00,
2013-03-06 11:32:00,51.3,14.7,31.68,SW,225,3.0,7.0,23,0.00,,,0.00,meteohub,2013-03-06 18:32:00,
2013-03-06 11:37:00,51.6,15.1,31.68,SW,225,6.0,7.0,23,0.00,,,0.00,meteohub,2013-03-06 18:37:00,
2013-03-06 11:42:00,52.2,14.4,31.68,SW,225,6.0,10.0,22,0.00,,,0.00,meteohub,2013-03-06 18:42:00,
2013-03-06 11:47:00,52.3,14.5,31.68,NNW,338,3.0,10.0,22,0.00,,,0.00,meteohub,2013-03-06 18:47:00,
2013-03-06 11:52:00,52.3,14.5,31.68,SE,135,12.0,12.0,22,0.00,,,0.00,meteohub,2013-03-06 18:52:00,
2013-03-06 11:57:00,51.4,14.9,31.67,SW,225,7.0,12.0,23,0.00,,,0.00,meteohub,2013-03-06 18:57:00,
2013-03-06 12:02:00,52.2,14.4,31.67,East,90,3.0,12.0,22,0.00,,,0.00,meteohub,2013-03-06 19:02:00,
2013-03-06 12:08:00,52.7,14.9,31.67,SE,135,11.0,12.0,22,0.00,,,0.00,meteohub,2013-03-06 19:08:00,
2013-03-06 12:13:00,52.5,14.7,31.67,NW,315,3.0,11.0,22,0.00,,,0.00,meteohub,2013-03-06 19:13:00,
2013-03-06 12:19:00,53.2,15.4,31.67,South,180,5.0,11.0,22,0.00,,,0.00,meteohub,2013-03-06 19:19:00,
2013-03-06 12:25:00,52.9,15.1,31.66,North,0,4.0,11.0,22,0.00,,,0.00,meteohub,2013-03-06 19:25:00,
2013-03-06 12:30:00,52.0,14.4,31.66,South,180,9.0,13.0,22,0.00,,,0.00,meteohub,2013-03-06 19:30:00,
2013-03-06 12:36:00,51.6,15.1,31.66,South,180,4.0,10.0,23,0.00,,,0.00,meteohub,2013-03-06 19:36:00,
2013-03-06 12:42:00,51.8,14.2,31.66,SSW,203,6.0,10.0,22,0.00,,,0.00,meteohub,2013-03-06 19:42:00,
2013-03-06 12:47:00,52.3,14.5,31.65,SE,135,8.0,10.0,22,0.00,,,0.00,meteohub,2013-03-06 19:47:00,
2013-03-06 12:52:00,52.2,14.4,31.65,East,90,7.0,8.0,22,0.00,,,0.00,meteohub,2013-03-06 19:52:00,
2013-03-06 12:57:00,51.8,14.2,31.65,South,180,8.0,8.0,22,0.00,,,0.00,meteohub,2013-03-06 19:57:00,
2013-03-06 13:02:00,52.2,14.4,31.65,South,180,4.0,8.0,22,0.00,,,0.00,meteohub,2013-03-06 20:02:00,
2013-03-06 13:07:00,52.0,14.4,31.65,East,90,4.0,8.0,22,0.00,,,0.00,meteohub,2013-03-06 20:07:00,
2013-03-06 13:13:00,50.9,14.4,31.64,South,180,7.0,8.0,23,0.00,,,0.00,meteohub,2013-03-06 20:13:00,
2013-03-06 13:19:00,51.1,14.5,31.64,SE,135,4.0,11.0,23,0.00,,,0.00,meteohub,2013-03-06 20:19:00,
2013-03-06 13:24:00,51.4,14.9,31.64,East,90,7.0,11.0,23,0.00,,,0.00,meteohub,2013-03-06 20:24:00,
2013-03-06 13:30:00,51.1,14.5,31.64,South,180,4.0,11.0,23,0.00,,,0.00,meteohub,2013-03-06 20:30:00,
2013-03-06 13:35:00,50.7,14.2,31.64,North,0,10.0,11.0,23,0.00,,,0.00,meteohub,2013-03-06 20:35:00,
2013-03-06 13:40:00,50.4,14.0,31.64,West,270,6.0,11.0,23,0.00,,,0.00,meteohub,2013-03-06 20:40:00,
2013-03-06 13:46:00,50.0,13.6,31.63,NW,315,12.0,12.0,23,0.00,,,0.00,meteohub,2013-03-06 20:46:00,
2013-03-06 13:52:00,48.9,13.6,31.64,SW,225,8.0,12.0,24,0.00,,,0.00,meteohub,2013-03-06 20:52:00,
2013-03-06 13:57:00,48.9,13.6,31.63,South,180,6.0,12.0,24,0.00,,,0.00,meteohub,2013-03-06 20:57:00,
2013-03-06 14:02:00,49.3,14.0,31.63,SE,135,4.0,12.0,24,0.00,,,0.00,meteohub,2013-03-06 21:02:00,
2013-03-06 14:07:00,49.5,14.2,31.63,SE,135,8.0,11.0,24,0.00,,,0.00,meteohub,2013-03-06 21:07:00,
2013-03-06 14:13:00,49.3,14.0,31.63,West,270,6.0,9.0,24,0.00,,,0.00,meteohub,2013-03-06 21:13:00,
2013-03-06 14:18:00,49.8,14.5,31.62,South,180,8.0,10.0,24,0.00,,,0.00,meteohub,2013-03-06 21:18:00,
2013-03-06 14:23:00,50.4,14.0,31.63,SE,135,6.0,15.0,23,0.00,,,0.00,meteohub,2013-03-06 21:23:00,
2013-03-06 14:29:00,50.4,14.0,31.62,NE,45,7.0,15.0,23,0.00,,,0.00,meteohub,2013-03-06 21:29:00,
2013-03-06 14:35:00,50.5,14.2,31.63,SE,135,4.0,15.0,23,0.00,,,0.00,meteohub,2013-03-06 21:35:00,
2013-03-06 14:40:00,50.9,14.4,31.63,SE,135,8.0,11.0,23,0.00,,,0.00,meteohub,2013-03-06 21:40:00,
2013-03-06 14:46:00,50.2,13.8,31.62,SE,135,4.0,11.0,23,0.00,,,0.00,meteohub,2013-03-06 21:46:00,
2013-03-06 14:52:00,50.4,14.0,31.62,South,180,8.0,8.0,23,0.00,,,0.00,meteohub,2013-03-06 21:52:00,
2013-03-06 14:57:00,50.5,14.2,31.62,NE,45,7.0,11.0,23,0.00,,,0.00,meteohub,2013-03-06 21:57:00,
2013-03-06 15:02:00,50.9,14.4,31.62,NE,45,10.0,11.0,23,0.00,,,0.00,meteohub,2013-03-06 22:02:00,
2013-03-06 15:07:00,50.9,14.4,31.62,NE,45,10.0,11.0,23,0.00,,,0.00,meteohub,2013-03-06 22:07:00,
2013-03-06 15:12:00,49.8,14.5,31.62,South,180,4.0,10.0,24,0.00,,,0.00,meteohub,2013-03-06 22:12:00,
2013-03-06 15:17:00,50.0,13.6,31.62,West,270,4.0,15.0,23,0.00,,,0.00,meteohub,2013-03-06 22:17:00,
2013-03-06 15:22:00,50.5,14.2,31.62,NW,315,5.0,15.0,23,0.00,,,0.00,meteohub,2013-03-06 22:22:00,
2013-03-06 15:27:00,50.9,14.4,31.62,East,90,2.0,15.0,23,0.00,,,0.00,meteohub,2013-03-06 22:27:00,
2013-03-06 15:32:00,50.7,14.2,31.62,SSE,158,4.0,9.0,23,0.00,,,0.00,meteohub,2013-03-06 22:32:00,
2013-03-06 15:37:00,50.5,14.2,31.62,SE,135,4.0,9.0,23,0.00,,,0.00,meteohub,2013-03-06 22:37:00,
2013-03-06 15:42:00,50.2,13.8,31.62,South,180,4.0,10.0,23,0.00,,,0.00,meteohub,2013-03-06 22:42:00,
2013-03-06 15:47:00,49.6,13.3,31.62,SW,225,6.0,10.0,23,0.00,,,0.00,meteohub,2013-03-06 22:47:00,
2013-03-06 15:52:00,48.7,13.5,31.62,West,270,3.0,10.0,24,0.00,,,0.00,meteohub,2013-03-06 22:52:00,
2013-03-06 15:57:00,47.5,13.5,31.62,SE,135,13.0,13.0,25,0.00,,,0.00,meteohub,2013-03-06 22:57:00,
2013-03-06 16:02:00,46.6,12.6,31.62,SE,135,13.0,13.0,25,0.00,,,0.00,meteohub,2013-03-06 23:02:00,
2013-03-06 16:07:00,46.0,8.2,31.62,West,270,6.0,13.0,21,0.00,,,0.00,meteohub,2013-03-06 23:07:00,
2013-03-06 16:13:00,46.2,8.4,31.62,West,270,4.0,17.0,21,0.00,,,0.00,meteohub,2013-03-06 23:13:00,
2013-03-06 16:19:00,45.9,8.1,31.62,West,270,16.0,17.0,21,0.00,,,0.00,meteohub,2013-03-06 23:19:00,
2013-03-06 16:24:00,45.0,7.3,31.62,SE,135,8.0,17.0,21,0.00,,,0.00,meteohub,2013-03-06 23:24:00,
2013-03-06 16:29:00,44.6,7.0,31.62,East,90,7.0,18.0,21,0.00,,,0.00,meteohub,2013-03-06 23:29:00,
2013-03-06 16:35:00,44.2,7.7,31.62,NW,315,11.0,18.0,22,0.00,,,0.00,meteohub,2013-03-06 23:35:00,
2013-03-06 16:40:00,44.1,7.7,31.62,South,180,7.0,11.0,22,0.00,,,0.00,meteohub,2013-03-06 23:40:00,
2013-03-06 16:45:00,44.2,7.7,31.62,SSE,158,10.0,13.0,22,0.00,,,0.00,meteohub,2013-03-06 23:45:00,
2013-03-06 16:51:00,43.9,7.5,31.62,WSW,248,8.0,13.0,22,0.00,,,0.00,meteohub,2013-03-06 23:51:00,
2013-03-06 16:56:00,43.7,7.3,31.62,SSE,158,4.0,12.0,22,0.00,,,0.00,meteohub,2013-03-06 23:56:00,
2013-03-06 17:02:00,43.0,7.7,31.62,East,90,3.0,12.0,23,0.00,,,0.00,meteohub,2013-03-07 00:02:00,
2013-03-06 17:07:00,43.0,7.7,31.62,East,90,3.0,12.0,23,0.00,,,0.00,meteohub,2013-03-07 00:07:00,
2013-03-06 17:12:00,40.6,7.5,31.62,SW,225,4.0,8.0,25,0.00,,,0.00,meteohub,2013-03-07 00:12:00,
2013-03-06 17:17:00,39.9,7.0,31.62,West,270,3.0,10.0,25,0.00,,,0.00,meteohub,2013-03-07 00:17:00,
2013-03-06 17:23:00,39.6,6.6,31.62,SSW,203,4.0,10.0,25,0.00,,,0.00,meteohub,2013-03-07 00:23:00,
2013-03-06 17:29:00,39.0,7.0,31.62,West,270,8.0,9.0,26,0.00,,,0.00,meteohub,2013-03-07 00:29:00,
2013-03-06 17:34:00,38.8,6.8,31.62,NNW,338,4.0,12.0,26,0.00,,,0.00,meteohub,2013-03-07 00:34:00,
2013-03-06 17:39:00,38.8,6.8,31.62,NW,315,3.0,12.0,26,0.00,,,0.00,meteohub,2013-03-07 00:39:00,
2013-03-06 17:44:00,38.1,7.2,31.62,SE,135,6.0,12.0,27,0.00,,,0.00,meteohub,2013-03-07 00:44:00,
2013-03-06 17:50:00,37.8,6.8,31.62,SE,135,1.0,9.0,27,0.00,,,0.00,meteohub,2013-03-07 00:50:00,
2013-03-06 17:55:00,37.4,6.4,31.62,West,270,8.0,8.0,27,0.00,,,0.00,meteohub,2013-03-07 00:55:00,
2013-03-06 18:01:00,37.4,6.4,31.62,West,270,8.0,9.0,27,0.00,,,0.00,meteohub,2013-03-07 01:01:00,
2013-03-06 18:07:00,37.6,6.6,31.62,WNW,293,7.0,12.0,27,0.00,,,0.00,meteohub,2013-03-07 01:07:00,
2013-03-06 18:12:00,37.2,3.7,31.62,SW,225,6.0,12.0,24,0.00,,,0.00,meteohub,2013-03-07 01:12:00,
2013-03-06 18:17:00,37.0,2.7,31.62,West,270,4.0,12.0,23,0.00,,,0.00,meteohub,2013-03-07 01:17:00,
2013-03-06 18:23:00,37.0,2.7,31.63,SW,225,0.0,13.0,23,0.00,,,0.00,meteohub,2013-03-07 01:23:00,
2013-03-06 18:28:00,36.5,2.1,31.63,East,90,2.0,13.0,23,0.00,,,0.00,meteohub,2013-03-07 01:28:00,
2013-03-06 18:34:00,36.1,1.9,31.63,East,90,4.0,13.0,23,0.00,,,0.00,meteohub,2013-03-07 01:34:00,
2013-03-06 18:39:00,35.8,1.6,31.64,North,0,0.0,5.0,23,0.00,,,0.00,meteohub,2013-03-07 01:39:00,
2013-03-06 18:44:00,35.6,1.4,31.64,SW,225,1.0,6.0,23,0.00,,,0.00,meteohub,2013-03-07 01:44:00,
2013-03-06 18:50:00,35.2,2.1,31.64,SW,225,1.0,6.0,24,0.00,,,0.00,meteohub,2013-03-07 01:50:00,
2013-03-06 18:55:00,35.2,2.8,31.65,SW,225,4.0,15.0,25,0.00,,,0.00,meteohub,2013-03-07 01:55:00,
2013-03-06 19:01:00,35.4,3.0,31.64,NW,315,4.0,15.0,25,0.00,,,0.00,meteohub,2013-03-07 02:01:00,
2013-03-06 19:07:00,35.4,3.0,31.65,NW,315,4.0,9.0,25,0.00,,,0.00,meteohub,2013-03-07 02:07:00,
2013-03-06 19:12:00,35.8,1.6,31.64,South,180,4.0,13.0,23,0.00,,,0.00,meteohub,2013-03-07 02:12:00,
2013-03-06 19:17:00,35.6,2.3,31.65,East,90,4.0,13.0,24,0.00,,,0.00,meteohub,2013-03-07 02:17:00,
2013-03-06 19:23:00,35.2,2.8,31.64,SW,225,1.0,13.0,25,0.00,,,0.00,meteohub,2013-03-07 02:23:00,
2013-03-06 19:28:00,34.9,2.7,31.65,East,90,2.0,11.0,25,0.00,,,0.00,meteohub,2013-03-07 02:28:00,
2013-03-06 19:33:00,34.5,2.3,31.64,NE,45,0.0,6.0,25,0.00,,,0.00,meteohub,2013-03-07 02:33:00,
2013-03-06 19:39:00,33.4,2.3,31.65,South,180,2.0,6.0,26,0.00,,,0.00,meteohub,2013-03-07 02:39:00,
2013-03-06 19:44:00,32.9,1.8,31.65,SE,135,2.0,6.0,26,0.00,,,0.00,meteohub,2013-03-07 02:44:00,
2013-03-06 19:50:00,33.4,2.3,31.65,West,270,3.0,7.0,26,0.00,,,0.00,meteohub,2013-03-07 02:50:00,
2013-03-06 19:56:00,33.6,2.3,31.65,South,180,4.0,8.0,26,0.00,,,0.00,meteohub,2013-03-07 02:56:00,
2013-03-06 20:01:00,34.3,2.1,31.65,South,180,11.0,12.0,25,0.00,,,0.00,meteohub,2013-03-07 03:01:00,
2013-03-06 20:07:00,34.7,2.5,31.65,South,180,3.0,12.0,25,0.00,,,0.00,meteohub,2013-03-07 03:07:00,
2013-03-06 20:12:00,34.7,2.5,31.65,SW,225,3.0,11.0,25,0.00,,,0.00,meteohub,2013-03-07 03:12:00,
2013-03-06 20:17:00,34.5,2.3,31.64,SW,225,7.0,11.0,25,0.00,,,0.00,meteohub,2013-03-07 03:17:00,
2013-03-06 20:22:00,34.7,2.5,31.65,West,270,3.0,7.0,25,0.00,,,0.00,meteohub,2013-03-07 03:22:00,
2013-03-06 20:27:00,34.5,2.3,31.65,North,0,1.0,7.0,25,0.00,,,0.00,meteohub,2013-03-07 03:27:00,
2013-03-06 20:32:00,34.3,2.1,31.64,East,90,0.0,7.0,25,0.00,,,0.00,meteohub,2013-03-07 03:32:00,
2013-03-06 20:37:00,33.8,1.8,31.65,NW,315,2.0,4.0,25,0.00,,,0.00,meteohub,2013-03-07 03:37:00,
2013-03-06 20:42:00,32.2,1.9,31.64,NNE,23,2.0,4.0,27,0.00,,,0.00,meteohub,2013-03-07 03:42:00,
2013-03-06 20:48:00,30.9,2.3,31.65,SE,135,2.0,6.0,29,0.00,,,0.00,meteohub,2013-03-07 03:48:00,
2013-03-06 20:53:00,30.6,2.8,31.65,NNE,23,2.0,6.0,30,0.00,,,0.00,meteohub,2013-03-07 03:53:00,
2013-03-06 20:59:00,30.7,3.0,31.65,SW,225,3.0,4.0,30,0.00,,,0.00,meteohub,2013-03-07 03:59:00,
2013-03-06 21:04:00,30.9,3.2,31.65,ENE,68,0.0,6.0,30,0.00,,,0.00,meteohub,2013-03-07 04:04:00,
2013-03-06 21:09:00,30.6,2.8,31.65,South,180,0.0,6.0,30,0.00,,,0.00,meteohub,2013-03-07 04:09:00,
2013-03-06 21:15:00,29.5,3.2,31.64,NW,315,3.0,3.0,32,0.00,,,0.00,meteohub,2013-03-07 04:15:00,
2013-03-06 21:21:00,29.1,2.8,31.65,South,180,2.0,4.0,32,0.00,,,0.00,meteohub,2013-03-07 04:21:00,
2013-03-06 21:26:00,29.1,2.8,31.64,West,270,0.0,4.0,32,0.00,,,0.00,meteohub,2013-03-07 04:26:00,
2013-03-06 21:32:00,29.1,2.8,31.64,NE,45,0.0,4.0,32,0.00,,,0.00,meteohub,2013-03-07 04:32:00,
2013-03-06 21:37:00,28.8,2.7,31.64,South,180,2.0,3.0,32,0.00,,,0.00,meteohub,2013-03-07 04:37:00,
2013-03-06 21:42:00,28.2,0.0,31.64,NW,315,2.0,2.0,29,0.00,,,0.00,meteohub,2013-03-07 04:42:00,
2013-03-06 21:47:00,27.7,1.0,31.64,SSE,158,5.0,5.0,31,0.00,,,0.00,meteohub,2013-03-07 04:47:00,
2013-03-06 21:52:00,28.6,4.5,31.64,SE,135,0.0,5.0,35,0.00,,,0.00,meteohub,2013-03-07 04:52:00,
2013-03-06 21:57:00,28.6,3.7,31.64,NNE,23,0.0,5.0,34,0.00,,,0.00,meteohub,2013-03-07 04:57:00,
2013-03-06 22:00:00,28.6,3.2,31.64,NE,45,0.0,5.0,33,0.00,,,0.00,meteohub,2013-03-07 05:00:00,
2013-03-06 22:01:00,28.8,3.2,31.64,NE,45,0.0,5.0,33,0.00,,,0.00,meteohub,2013-03-07 05:01:00,
2013-03-06 22:02:00,28.8,3.2,31.64,North,0,0.0,5.0,33,0.00,,,0.00,meteohub,2013-03-07 05:02:00,
2013-03-06 22:07:00,28.8,3.2,31.64,NE,45,0.0,2.0,33,0.00,,,0.00,meteohub,2013-03-07 05:07:00,
2013-03-06 22:13:00,28.0,-0.2,31.64,East,90,0.0,2.0,29,0.00,,,0.00,meteohub,2013-03-07 05:13:00,
2013-03-06 22:18:00,27.7,1.0,31.64,SE,135,2.0,2.0,31,0.00,,,0.00,meteohub,2013-03-07 05:18:00,
2013-03-06 22:24:00,27.5,0.9,31.65,North,0,3.0,3.0,31,0.00,,,0.00,meteohub,2013-03-07 05:24:00,
2013-03-06 22:29:00,28.6,5.0,31.65,SW,225,0.0,2.0,36,0.00,,,0.00,meteohub,2013-03-07 05:29:00,
2013-03-06 22:35:00,28.2,2.1,31.65,SE,135,4.0,4.0,32,0.00,,,0.00,meteohub,2013-03-07 05:35:00,
2013-03-06 22:40:00,28.6,5.0,31.64,East,90,2.0,7.0,36,0.00,,,0.00,meteohub,2013-03-07 05:40:00,
2013-03-06 22:46:00,28.8,5.2,31.65,SE,135,3.0,7.0,36,0.00,,,0.00,meteohub,2013-03-07 05:46:00,
2013-03-06 22:51:00,29.1,4.8,31.65,SW,225,0.0,7.0,35,0.00,,,0.00,meteohub,2013-03-07 05:51:00,
2013-03-06 22:57:00,29.7,5.4,31.65,East,90,0.0,3.0,35,0.00,,,0.00,meteohub,2013-03-07 05:57:00,
2013-03-06 23:02:00,29.7,5.4,31.65,East,90,3.0,6.0,35,0.00,,,0.00,meteohub,2013-03-07 06:02:00,
2013-03-06 23:07:00,29.7,5.4,31.65,East,90,3.0,6.0,35,0.00,,,0.00,meteohub,2013-03-07 06:07:00,
2013-03-06 23:12:00,28.8,4.5,31.65,NE,45,0.0,3.0,35,0.00,,,0.00,meteohub,2013-03-07 06:12:00,
2013-03-06 23:17:00,28.8,4.5,31.65,SW,225,2.0,3.0,35,0.00,,,0.00,meteohub,2013-03-07 06:17:00,
2013-03-06 23:22:00,29.1,4.8,31.65,SW,225,0.0,3.0,35,0.00,,,0.00,meteohub,2013-03-07 06:22:00,
2013-03-06 23:27:00,29.5,5.2,31.65,NE,45,3.0,3.0,35,0.00,,,0.00,meteohub,2013-03-07 06:27:00,
2013-03-06 23:32:00,30.0,5.7,31.65,NE,45,0.0,3.0,35,0.00,,,0.00,meteohub,2013-03-07 06:32:00,
2013-03-06 23:37:00,29.8,5.5,31.65,South,180,0.0,3.0,35,0.00,,,0.00,meteohub,2013-03-07 06:37:00,
2013-03-06 23:42:00,29.3,5.0,31.65,SW,225,1.0,3.0,35,0.00,,,0.00,meteohub,2013-03-07 06:42:00,
2013-03-06 23:48:00,28.8,5.2,31.65,SW,225,0.0,2.0,36,0.00,,,0.00,meteohub,2013-03-07 06:48:00,
2013-03-06 23:53:00,28.4,4.8,31.65,NE,45,0.0,2.0,36,0.00,,,0.00,meteohub,2013-03-07 06:53:00,
2013-03-06 23:59:00,28.2,2.8,31.65,East,90,3.0,3.0,33,0.00,,,0.00,meteohub,2013-03-07 06:59:00,